Regional Weather Roundup
Issued by NWS

Home | Current Version | Previous Version | Text Only | Print | Product List | Glossary On
Versions: 1 2 3 4 5 6 7 8 9 10 11 12 13 14 15 16 17 18 19 20 21 22 23 24 25 26 27 28
000
ASUS44 KBMX 250810
RWRAL

ALABAMA REGIONAL WEATHER ROUNDUP
NATIONAL WEATHER SERVICE BIRMINGHAM AL
300 AM CDT SAT MAR 25 2017

NOTE: "FAIR" INDICATES FEW OR NO CLOUDS BELOW 12,000 FEET
WITH NO SIGNIFICANT WEATHER AND/OR OBSTRUCTIONS TO VISIBILITY.

THE REMARK "TC" DENOTES TEMPERATURE IN DEGREES CELSIUS.

ALZ001>011-014-016>018-020-250900-
NORTH ALABAMA

CITY           SKY/WX    TMP DP  RH WIND       PRES   REMARKS
MUSCLE SHOALS  CLOUDY    65  54  67 S13       30.12S
HUNTSVILLE     PTCLDY    65  53  65 SE9       30.14S
DECATUR        MOCLDY    62  53  72 SE7       30.14F
HALEYVILLE     CLOUDY    62  55  77 S10       30.15F
GADSDEN        CLOUDY    66  51  58 S8        30.20R
$$

ALZ012-013-022-023-030>036-040>044-250900-
WEST CENTRAL ALABAMA

CITY           SKY/WX    TMP DP  RH WIND       PRES   REMARKS
TUSCALOOSA     CLOUDY    64  54  69 SE7       30.13F
$$

ALZ015-024>027-033>036-040>044-250900-
CENTRAL ALABAMA

CITY           SKY/WX    TMP DP  RH WIND       PRES   REMARKS
BIRMINGHAM     NOT AVBL
MONTGOMERY     MOCLDY    59  51  75 E5        30.17S
SHELBY CO ARPT CLEAR     62  55  77 CALM      30.18S
MAXWELL AFB    MOCLDY    62  54  73 SE3       30.17S
GREENVILLE     FAIR      59  51  75 S3        30.15F
$$

ALZ019-021-028-029-037-038-045>048-250900-
EAST CENTRAL ALABAMA

CITY           SKY/WX    TMP DP  RH WIND       PRES   REMARKS
ANNISTON       PTCLDY    65  50  58 S6        30.20S
ALEXANDER CITY CLOUDY    60  53  78 E5        30.20S
AUBURN         PTCLDY    62  50  64 SE8       30.22F
$$

ALZ051>064-250900-
SOUTHWEST ALABAMA

CITY           SKY/WX    TMP DP  RH WIND       PRES   REMARKS
MOBILE         CLOUDY    66  61  84 SE9       30.12S
BROOKLEY FIELD CLOUDY    70  64  81 SE13      30.13F
EVERGREEN      CLOUDY    55  53  93 CALM      30.15S
$$

ALZ049-050-065>069-250900-
SOUTHEAST ALABAMA

CITY           SKY/WX    TMP DP  RH WIND       PRES   REMARKS
DOTHAN         MOCLDY    62  55  77 SE7       30.22F
OZARK          PTCLDY    61  54  78 SE9       30.18S
TROY           CLOUDY    56  55  97 SE7       30.19F
EUFAULA        FAIR      63  51  65 SE6       30.21F
$$




USA.gov is the U.S. government's official web portal to all federal, state and local government web resources and services.